[[{"header":{"parameterUnit":"m.s-1","parameterCategory":1,"la1":30.2991,"la2":30.254,"lo1":-89.0895,"lo2":-89.0444,"dy":0.0017,"dx":0.0017,"nx":28,"ny":28,"refTime":"2024-09-04T09:00:00:Z","depth":0,"parameterNumber":2,"parameterNumberName":"U-component_of_WINDS"},"data":[0,0,0,0,0,0,0,0,0,0,0,0,0,0,0,0,0,0,0,0,0,0,0,0,0,0,0,0,0,0,0,0,0,0,0,0,0,0,0,0,0,0,0,0,0,0,0,0,0,0,0,0,0,0,0,0,0,0,-5.8922,-5.8923,0,-5.8981,-5.8982,-5.8982,-5.8844,-5.884,-5.8836,-5.8831,-5.8892,-5.8898,-5.8903,0,0,0,0,0,0,0,0,0,0,0,0,0,-5.869,-5.8695,-5.8922,-5.8923,-5.8924,-5.8981,-5.8982,-5.8982,-5.8845,-5.884,-5.8834,-5.8829,-5.889,-5.8897,-5.8904,0,0,0,0,0,0,0,0,0,0,0,0,0,-5.8774,-5.8697,-5.8922,-5.8862,-5.8857,-5.8981,-5.8982,-5.8983,-5.8846,-5.884,-5.8833,-5.8827,-5.8888,-5.8896,-5.8905,-5.9089,0,0,-5.8931,-5.8935,0,0,0,0,0,0,0,0,-5.877,-5.8783,-5.887,-5.8866,-5.8861,-5.8899,-5.8922,-5.9018,-5.8848,-5.8851,-5.8831,-5.8824,-5.89,-5.8907,-5.8932,-5.9092,-5.9095,-5.8932,-5.8937,-5.894,-5.8943,0,0,0,0,0,0,0,-5.8764,-5.878,-5.8945,-5.8872,-5.8866,-5.8832,-5.8836,-5.894,-5.8911,-5.885,-5.884,-5.8849,-5.8896,-5.8924,-5.8933,-5.9096,-5.8931,-5.8939,-5.8944,-5.8948,-5.9407,-5.9414,0,0,0,0,0,0,-5.8766,-5.8776,-5.8943,-5.8947,-5.8798,-5.8841,-5.8847,-5.8893,-5.891,-5.8906,-5.8854,-5.8842,-5.8913,-5.8923,-5.8934,-5.9149,-5.894,-5.8948,-5.8953,-5.94,-5.9409,-5.9417,0,0,0,0,0,0,-5.8761,-5.8782,-5.8941,-5.8859,-5.8876,-5.8852,-5.8906,-5.8898,-5.8926,-5.8913,-5.8907,-5.8889,-5.8908,-5.8922,-5.9051,-5.915,-5.8952,-5.896,-5.9392,-5.9403,-5.9413,-5.9583,0,0,0,0,0,0,-5.8755,-5.8781,-5.8852,-5.8861,-5.8881,-5.9058,-5.8912,-5.8904,-5.8941,-5.8926,-5.8944,-5.894,-5.8904,-5.9039,-5.906,-5.9158,-5.8967,-5.9383,-5.9397,-5.9409,-5.9568,-5.9598,-5.9623,0,0,0,0,0,-5.8748,-5.8898,-5.8856,-5.8877,-5.8969,-5.9064,-5.9075,-5.903,-5.895,-5.902,-5.9011,-5.894,-5.9136,-5.9054,-5.9075,-5.9178,-5.9377,-5.9393,-5.9408,-5.9556,-5.9592,-5.9622,0,0,0,0,0,0,-5.89,-5.8898,-5.8851,-5.9009,-5.9038,-5.904,-5.9127,-5.907,-5.9122,-5.9106,-5.9048,-5.9053,-5.9192,-5.9198,-5.9106,-5.9356,-5.9242,-5.9264,-5.9347,-5.9381,-5.9408,-5.9403,-5.8974,0,0,0,0,0,-5.8952,-5.903,-5.9024,-5.9164,-5.918,-5.9152,-5.9192,-5.9154,-5.9181,-5.9193,-5.9194,-5.9223,-5.929,-5.9336,-5.9398,-5.9569,-5.9569,-5.965,-5.9677,-5.97,-5.9718,-5.9807,-5.9842,-5.9469,-5.9469,-5.9468,0,0,-5.9061,-5.9069,-5.9122,-5.9194,-5.9212,-5.9293,-5.9163,-5.9255,-5.9314,-5.9207,-5.9328,-5.933,-5.9358,-5.9508,-5.9575,-5.9517,-5.9822,-5.972,-5.9738,-5.9744,-5.9827,-5.9862,-5.9893,-5.948,-5.9478,-5.9476,0,0,-5.9299,-5.9314,-5.9431,-5.9451,-5.9479,-5.9459,-5.9488,-5.9499,-5.9496,-5.9616,-5.9537,-5.9607,-5.9726,-5.9748,-5.9776,-6.0022,-5.9958,-6.0044,-6.0187,-6.0274,-6.0303,-6.0329,-6.0415,-6.0447,-6.0063,-6.0063,-6.0064,0,-5.943,-5.9549,-5.9498,-5.9595,-5.9629,-5.9535,-5.9653,-5.9675,-5.9722,-5.9747,-5.9683,-5.9828,-5.9842,-5.9994,-6.0054,-6.008,-6.011,-6.0041,-6.0303,-6.0329,-6.0352,-6.0433,-6.0466,-6.0073,-6.0072,-6.0071,-6.007,0,-5.9707,-5.9791,-5.9882,-5.9929,-5.9973,-6.0081,-6.0045,-6.0096,-6.0055,-6.0042,-6.0165,-6.0178,-6.0239,-6.0273,-6.0235,-6.0421,-6.0384,-6.0313,-6.0197,-6.0398,-6.0473,-6.0504,-6.0088,-6.0084,-6.0081,-6.0079,0,0,-6.0043,-6.006,-6.0094,-6.0113,-6.0137,-6.0201,-6.0303,-6.0363,-6.0407,-6.0443,-6.0526,-6.0629,-6.0562,-6.0593,-6.0556,-6.0633,-6.0825,-6.0552,-6.0551,-6.06,-6.1028,-6.108,-6.1117,-6.0783,-6.0789,-6.0794,-6.1025,0,-6.0276,-6.0451,-6.0408,-6.0581,-6.0657,-6.0569,-6.0658,-6.0682,-6.0673,-6.0735,-6.0725,-6.0797,-6.0705,-6.0723,-6.0795,-6.0786,-6.091,-6.0769,-6.0859,-6.0863,-6.0852,-6.1157,-6.1212,-6.143,-6.1054,-6.1059,-6.1063,0,-6.0572,-6.0618,-6.0799,-6.0808,-6.0839,-6.0919,-6.097,-6.1031,-6.1057,-6.1044,-6.1079,-6.1027,-6.1127,-6.1012,-6.1148,-6.1054,-6.1088,-6.109,-6.1097,-6.1102,-6.0973,-6.1167,-6.1498,-6.153,-6.1109,-6.1105,-6.1102,0,-6.0795,-6.0903,-6.1024,-6.1044,-6.1059,-6.1118,-6.1127,-6.1146,-6.1184,-6.1229,-6.1252,-6.1309,-6.1339,-6.1384,-6.1348,-6.1268,-6.149,-6.1372,-6.1481,-6.1482,-6.1529,-6.1527,-6.1868,-6.1556,-6.1556,-6.1555,-6.1554,0,-6.1059,-6.1172,-6.1124,-6.1199,-6.1323,-6.1273,-6.1397,-6.1396,-6.1413,-6.1485,-6.1414,-6.1483,-6.1433,-6.1498,-6.1471,-6.1587,-6.1602,-6.1593,-6.1584,-6.1598,-6.1599,-6.1618,-6.1601,-6.1564,-6.1562,-6.156,-6.1559,0,-6.1328,-6.1301,-6.1427,-6.1431,-6.1435,-6.1526,-6.1529,-6.1598,-6.1583,-6.1675,-6.1694,-6.1671,-6.1744,-6.1713,-6.179,-6.1771,-6.1919,-6.1892,-6.1911,-6.1902,-6.2012,-6.2001,-6.2376,-6.2421,-6.2083,-6.2086,-6.2089,0,-6.1497,-6.1582,-6.1595,-6.1638,-6.1652,-6.1723,-6.1761,-6.1715,-6.1758,-6.1793,-6.1857,-6.1924,-6.1974,-6.2094,-6.2084,-6.2142,-6.2114,-6.2241,-6.2122,-6.2133,-6.2112,-6.2107,-6.2114,-6.2264,-6.2268,-6.2271,-6.2274,0,-6.1799,-6.1781,-6.1839,-6.1893,-6.194,-6.198,-6.2014,-6.2054,-6.2009,-6.2061,-6.2134,-6.2173,-6.2251,-6.2317,-6.2368,-6.2377,-6.2318,-6.2312,-6.2339,-6.2353,-6.236,-6.2355,-6.1973,-6.2303,-6.23,-6.2298,-6.2296,-6.2295,-6.2021,-6.2092,-6.2112,-6.2178,-6.2199,-6.2232,-6.2296,-6.2289,-6.2349,-6.2408,-6.2378,-6.2462,-6.2484,-6.2547,-6.2564,-6.2629,-6.2579,-6.262,-6.263,-6.264,-6.2653,-6.2352,-6.2639,-6.2638,-6.2637,-6.2636,-6.2636,0,-6.2317,-6.2325,-6.2387,-6.2436,-6.2488,-6.2429,-6.2463,-6.251,-6.2585,-6.2611,-6.2662,-6.2745,-6.2809,-6.2804,-6.2863,-6.2916,-6.289,-6.2932,-6.2927,-6.2929,-6.2696,-6.2665,-6.2952,-6.2952,-6.2952,-6.2952,-6.2952,-6.2952,-6.2477,-6.2592,-6.2577,-6.2701,-6.2708,-6.279,-6.2814,-6.2844,-6.2864,-6.296,-6.3012,-6.3009,-6.3022,-6.3081,-6.3136,-6.3133,-6.3157,-6.3209,-6.3196,-6.2977,-6.2946,-6.2916,-6.2886,-6.3215,-6.3216,-6.3423,-6.3425,-6.3427]},{"header":{"parameterUnit":"m.s-1","parameterCategory":1,"la1":30.2991,"la2":30.254,"lo1":-89.0895,"lo2":-89.0444,"dy":0.0017,"dx":0.0017,"nx":28,"ny":28,"refTime":"2024-09-04T09:00:00:Z","depth":0,"parameterNumber":3,"parameterNumberName":"V-component_of_WINDS"},"data":[0,0,0,0,0,0,0,0,0,0,0,0,0,0,0,0,0,0,0,0,0,0,0,0,0,0,0,0,0,0,0,0,0,0,0,0,0,0,0,0,0,0,0,0,0,0,0,0,0,0,0,0,0,0,0,0,0,0,-0.411,-0.4111,0,-0.4213,-0.4214,-0.4215,-0.4316,-0.4317,-0.4319,-0.432,-0.4421,-0.4423,-0.4424,0,0,0,0,0,0,0,0,0,0,0,0,0,-0.3998,-0.4,-0.411,-0.4111,-0.4112,-0.4212,-0.4214,-0.4215,-0.4316,-0.4317,-0.4319,-0.432,-0.4421,-0.4423,-0.4424,0,0,0,0,0,0,0,0,0,0,0,0,0,-0.4068,-0.4,-0.411,-0.4175,-0.4182,-0.4212,-0.4214,-0.4216,-0.4315,-0.4317,-0.4319,-0.4321,-0.442,-0.4422,-0.4425,-0.4398,0,0,-0.4431,-0.4432,0,0,0,0,0,0,0,0,-0.4064,-0.4072,-0.4164,-0.417,-0.4178,-0.4254,-0.4212,-0.4277,-0.4315,-0.4264,-0.432,-0.4322,-0.4364,-0.4371,-0.4385,-0.4403,-0.4407,-0.4432,-0.4433,-0.4434,-0.4434,0,0,0,0,0,0,0,-0.4059,-0.4068,-0.415,-0.4165,-0.4174,-0.4198,-0.421,-0.4225,-0.4301,-0.4269,-0.4276,-0.4287,-0.4368,-0.4383,-0.4389,-0.4409,-0.4431,-0.4433,-0.4435,-0.4436,-0.4409,-0.4407,0,0,0,0,0,0,-0.4045,-0.4064,-0.4147,-0.4153,-0.4125,-0.4198,-0.4212,-0.4227,-0.4302,-0.4315,-0.4286,-0.4292,-0.4378,-0.4386,-0.4392,-0.4365,-0.4434,-0.4436,-0.4437,-0.4411,-0.4409,-0.4407,0,0,0,0,0,0,-0.4042,-0.4051,-0.4143,-0.4111,-0.4124,-0.4198,-0.4214,-0.4228,-0.4243,-0.4314,-0.4328,-0.4287,-0.438,-0.4389,-0.4396,-0.437,-0.4437,-0.4439,-0.4414,-0.4411,-0.4408,-0.4311,0,0,0,0,0,0,-0.4038,-0.405,-0.4041,-0.411,-0.4126,-0.4145,-0.4213,-0.4229,-0.4247,-0.4256,-0.4319,-0.4332,-0.4382,-0.4392,-0.4398,-0.4374,-0.4441,-0.4416,-0.4412,-0.4409,-0.4316,-0.4305,-0.4295,0,0,0,0,0,-0.4034,-0.4008,-0.404,-0.4049,-0.4116,-0.4143,-0.4152,-0.4212,-0.4245,-0.4236,-0.4282,-0.433,-0.4373,-0.4392,-0.44,-0.4376,-0.4418,-0.4413,-0.4409,-0.4321,-0.4307,-0.4295,0,0,0,0,0,0,-0.3932,-0.4019,-0.4054,-0.405,-0.4089,-0.416,-0.4151,-0.4195,-0.4224,-0.4231,-0.4304,-0.4317,-0.4315,-0.4347,-0.4367,-0.4354,-0.4402,-0.4399,-0.4333,-0.432,-0.4309,-0.43,-0.4442,0,0,0,0,0,-0.391,-0.3926,-0.4,-0.399,-0.4008,-0.4076,-0.409,-0.4133,-0.4176,-0.4192,-0.4238,-0.4276,-0.4299,-0.4312,-0.4336,-0.4323,-0.4337,-0.4311,-0.43,-0.429,-0.4285,-0.428,-0.4268,-0.4392,-0.4392,-0.4392,0,0,-0.3863,-0.3912,-0.3917,-0.3971,-0.4006,-0.4019,-0.4089,-0.41,-0.4111,-0.4193,-0.4202,-0.4238,-0.4286,-0.4282,-0.4282,-0.4308,-0.4255,-0.4285,-0.4277,-0.4277,-0.4274,-0.4262,-0.4251,-0.4389,-0.4389,-0.439,0,0,-0.3783,-0.3823,-0.3818,-0.3853,-0.3905,-0.3951,-0.395,-0.4016,-0.4042,-0.4053,-0.4115,-0.4129,-0.4166,-0.4198,-0.4218,-0.4153,-0.4197,-0.4159,-0.41,-0.4094,-0.4084,-0.4076,-0.405,-0.404,-0.4155,-0.4155,-0.4155,0,-0.3717,-0.3741,-0.381,-0.3818,-0.3839,-0.3917,-0.3912,-0.3942,-0.3999,-0.4011,-0.404,-0.4089,-0.4126,-0.413,-0.4114,-0.413,-0.4129,-0.415,-0.408,-0.4073,-0.4066,-0.4042,-0.4032,-0.415,-0.415,-0.4151,-0.4151,0,-0.3657,-0.3673,-0.3662,-0.3717,-0.3738,-0.3739,-0.3807,-0.3819,-0.3862,-0.3904,-0.3914,-0.3963,-0.3998,-0.4003,-0.4044,-0.4013,-0.4027,-0.4067,-0.4116,-0.4047,-0.4026,-0.4018,-0.4142,-0.4144,-0.4146,-0.4147,0,0,-0.3511,-0.3607,-0.3601,-0.3627,-0.3692,-0.3705,-0.3711,-0.3747,-0.3755,-0.3793,-0.3798,-0.3829,-0.3867,-0.389,-0.3936,-0.3931,-0.3873,-0.3972,-0.3974,-0.3949,-0.384,-0.3806,-0.3794,-0.3905,-0.3904,-0.3903,-0.3835,0,-0.3441,-0.3455,-0.3518,-0.3513,-0.3527,-0.3603,-0.3608,-0.3648,-0.3688,-0.3706,-0.3752,-0.3771,-0.3822,-0.3836,-0.3835,-0.388,-0.3852,-0.3887,-0.3908,-0.3908,-0.3889,-0.3784,-0.3748,-0.3681,-0.3827,-0.3826,-0.3825,0,-0.3358,-0.3392,-0.3389,-0.3455,-0.3463,-0.3466,-0.3504,-0.3522,-0.3569,-0.3599,-0.3626,-0.3678,-0.3687,-0.3736,-0.3748,-0.377,-0.3783,-0.3808,-0.3806,-0.3807,-0.3859,-0.3778,-0.3662,-0.365,-0.3813,-0.3814,-0.3815,0,-0.3249,-0.3295,-0.3299,-0.3319,-0.3396,-0.3396,-0.3428,-0.3478,-0.3495,-0.3529,-0.3541,-0.3575,-0.3593,-0.3618,-0.3677,-0.3708,-0.3682,-0.3736,-0.3705,-0.3703,-0.3692,-0.3691,-0.3572,-0.3707,-0.3707,-0.3707,-0.3707,0,-0.3161,-0.3155,-0.325,-0.3252,-0.3248,-0.3321,-0.3315,-0.3354,-0.3398,-0.3408,-0.3477,-0.3484,-0.3564,-0.3581,-0.3628,-0.363,-0.3638,-0.3661,-0.3673,-0.3653,-0.3649,-0.3659,-0.3664,-0.3704,-0.3705,-0.3706,-0.3706,0,-0.3035,-0.31,-0.3109,-0.3182,-0.3201,-0.3194,-0.3257,-0.3261,-0.3308,-0.3319,-0.3327,-0.3399,-0.3422,-0.3485,-0.3525,-0.3557,-0.3544,-0.3569,-0.3527,-0.3534,-0.3499,-0.3499,-0.3378,-0.3365,-0.3511,-0.3509,-0.3508,0,-0.2973,-0.297,-0.3045,-0.3057,-0.3086,-0.3106,-0.3125,-0.3198,-0.3214,-0.3269,-0.3266,-0.3296,-0.3322,-0.3356,-0.3411,-0.3442,-0.3466,-0.3422,-0.347,-0.345,-0.3461,-0.3459,-0.3458,-0.3409,-0.3407,-0.3405,-0.3404,0,-0.2853,-0.2886,-0.2911,-0.2948,-0.2969,-0.3002,-0.3038,-0.3044,-0.3125,-0.3141,-0.3166,-0.3187,-0.3229,-0.3256,-0.3296,-0.3329,-0.3378,-0.3389,-0.3383,-0.336,-0.3335,-0.3345,-0.3494,-0.339,-0.3392,-0.3393,-0.3393,-0.3394,-0.2755,-0.2756,-0.2809,-0.2835,-0.2871,-0.2903,-0.291,-0.2959,-0.2982,-0.3022,-0.3064,-0.3084,-0.3133,-0.3192,-0.3221,-0.3237,-0.3264,-0.3256,-0.3253,-0.3248,-0.3238,-0.3336,-0.3245,-0.3246,-0.3246,-0.3247,-0.3247,0,-0.2636,-0.2675,-0.2699,-0.2747,-0.2768,-0.2818,-0.286,-0.2873,-0.2891,-0.2933,-0.2959,-0.2988,-0.3016,-0.3074,-0.3107,-0.3109,-0.3133,-0.3115,-0.3113,-0.3119,-0.3214,-0.3214,-0.3095,-0.3095,-0.3095,-0.3095,-0.3095,-0.3095,-0.2576,-0.258,-0.2619,-0.2642,-0.2681,-0.2702,-0.2722,-0.2752,-0.2786,-0.2815,-0.2839,-0.2879,-0.2927,-0.2964,-0.2991,-0.3008,-0.3015,-0.2989,-0.3012,-0.3098,-0.3113,-0.3126,-0.3127,-0.2991,-0.2991,-0.2916,-0.2915,-0.2914]}]]